| time (UTC) | temp F | wind direction | speed knots | gust knots | rain 1hr in | rain 24hr in | rain mn in | humidity % | barometer mb |
| 20260505124505 | 77 | 0.0 | 0.0 | 0.00 | 0.00 | 0.00 | 66 | 1024.0 | |
| 20260505121504 | 75 | 0.0 | 0.0 | 0.00 | 0.00 | 0.00 | 70 | 1023.9 | |
| 20260505114504 | 73 | 0.0 | 0.0 | 0.00 | 0.00 | 0.00 | 76 | 1023.6 | |
| 20260505111505 | 72 | 0.0 | 0.0 | 0.00 | 0.00 | 0.00 | 77 | 1023.1 | |
| 20260505101505 | 70 | 0.0 | 0.0 | 0.00 | 0.00 | 0.00 | 85 | 1022.7 | |
| 20260505094505 | 69 | 0.0 | 0.0 | 0.00 | 0.00 | 0.00 | 85 | 1022.4 | |
| 20260505091505 | 69 | 0.0 | 0.0 | 0.00 | 0.00 | 0.00 | 86 | 1022.1 | |
| 20260505084504 | 69 | 0.0 | 0.0 | 0.00 | 0.00 | 0.00 | 85 | 1021.8 | |
| 20260505081504 | 69 | 0.0 | 0.0 | 0.00 | 0.00 | 0.00 | 85 | 1021.4 | |
| 20260505074505 | 69 | 0.0 | 0.0 | 0.00 | 0.00 | 0.00 | 86 | 1021.2 | |
| 20260505071504 | 69 | 0.0 | 0.0 | 0.00 | 0.00 | 0.00 | 86 | 1021.4 | |
| 20260505064514 | 69 | 0.0 | 0.0 | 0.00 | 0.00 | 0.00 | 84 | 1021.6 | |
| 20260505061504 | 70 | 0.0 | 0.0 | 0.00 | 0.00 | 0.00 | 85 | 1021.7 | |
| 20260505054505 | 69 | 0.0 | 0.0 | 0.00 | 0.00 | 0.00 | 85 | 1021.8 | |
| 20260505051504 | 70 | 0.0 | 0.0 | 0.00 | 0.00 | 0.00 | 84 | 1021.8 | |
| 20260505041505 | 70 | 0.0 | 0.0 | 0.00 | 0.00 | 0.00 | 84 | 1022.2 | |
| 20260505034505 | 70 | 0.0 | 0.0 | 0.00 | 0.00 | 0.00 | 83 | 1022.3 | |
| 20260505031504 | 71 | 0.0 | 0.0 | 0.00 | 0.00 | 0.00 | 83 | 1022.2 | |
| 20260505024504 | 71 | 0.0 | 0.0 | 0.00 | 0.00 | 0.00 | 83 | 1022.3 | |
| 20260505021505 | 71 | 0.0 | 0.0 | 0.00 | 0.00 | 0.00 | 82 | 1022.3 | |
| 20260505014505 | 71 | 0.0 | 0.0 | 0.00 | 0.00 | 0.00 | 82 | 1022.3 | |
| 20260505011505 | 70 | 0.0 | 0.0 | 0.00 | 0.00 | 0.00 | 85 | 1022.2 | |
| 20260505004505 | 70 | 0.0 | 0.0 | 0.00 | 0.00 | 0.00 | 83 | 1022.3 | |
| 20260505001504 | 70 | 0.0 | 0.0 | 0.00 | 0.00 | 0.00 | 84 | 1022.1 | |
| 20260504234504 | 70 | 0.0 | 0.0 | 0.00 | 0.00 | 0.00 | 84 | 1022.0 | |
| 20260504231505 | 69 | 0.0 | 0.0 | 0.00 | 0.00 | 0.00 | 88 | 1022.0 | |
| 20260504224504 | 69 | 0.0 | 0.0 | 0.00 | 0.00 | 0.00 | 86 | 1021.4 |